星链-3282 (STARLINK-3282 )

导读

STARLINK-3282是美国SpaceX星链互联网卫星星座的成员,于2021年12月18日发射升空,是星链星座部署过程中的一颗组网卫星,旨在为全球提供低延迟、高速率的卫星互联网服务,运行于近地轨道,依托星链大规模星座组网架构,服务陆地、海洋、空中等各类用户,是美国太空基础设施布局的组成部分。

基本信息
目录编号:
50177
目录名称:
STARLINK-3282
国际标识:
2021-125X
轨道中心:
EARTH
卫星名称:
星链-3282
卫星全名:
星链-3282 (STARLINK-3282 )
卫星状态:
在轨 (已飞行1721 天)
发射日期:
2021-12-18 UTC
国别 :
美国 (US)
星等 :
--
轨道信息
数据来源 国际轨道数据
星历时间: 2026-09-04T02:21:53+0800
9小时前
查看轨道信息
半长轴: 6840.866km
偏心率: 0.0001337
轨道倾角: 53.161°
近地点辐角 91.923°
升交点赤经 155.956°
平近点角 268.193°
近地点: 461.814km
远地点: 463.644km
周期: 93.848分钟
每日圈数: 15.343915
详细信息
固有亮度:
5
最大亮度:
2.5
卫星平台:
Starlink v1.5
覆盖范围:
全球
运营商:
太空探索技术公司
运营商所在国:
美国
制造商(研发单位):
太空探索技术公司
制造商所在国:
美国
使用方式:
暂无
卫星简介
星链(Starlink)计划是由太空探索技术公司(SpaceX)提出的一个巨型低轨卫星互联网星座项目,计划在2019年至2024年间在太空搭建由约1.2万颗卫星组成的“星链”网络,其中1584颗将部署在地球上空550千米处的近地轨道,并从2020年开始工作。该卫星仍在工作。
2D轨道图
3D轨道图
轨道高度分析图
轨道倾角分析图
轨道综合分析图
查看轨道综合分析图
交会数据列表
事件ID 空间交会对象 最接近时刻(TCA) 交会距离 交会风险概率(CRP) 交会风险指数(CRI) 操作
CDM_260904-123105-017706-662622
2026-09-04T
12:31:14+0000
0.650 km
远距离
8.602699E-5 中风险 0.74
CDM_260905-111705-017706-231521
2026-09-05T
11:17:51+0000
0.880 km
远距离
2.519857E-5 中风险 0.63
CDM_260904-022105-017706-662622
2026-09-04T
02:21:37+0000
0.970 km
远距离
2.417144E-5 中风险 0.63
CDM_260905-125105-017706-231521
2026-09-05T
12:51:38+0000
1.846 km
极远距离
2.233987E-6 低风险 0.42
CDM_260829-163505-017705-228122
2026-08-29T
16:35:39+0000
2.358 km
极远距离
1.649592E-6 低风险 0.39
CDM_260904-055705-017705-481021
2026-09-04T
05:57:07+0000
2.785 km
极远距离
1.274854E-6 低风险 0.37
CDM_260904-110405-017705-328821
2026-09-04T
11:04:46+0000
2.875 km
极远距离
8.844011E-7 极低风险 0.34